EW7771 Weather Reports


Display with metric or nautical units.
time (UTC)temp
F
wind
direction
speed
MPH
gust
MPH
rain 1hr
in
rain 24hr
in
rain mn
in
humidity
%
barometer
mb
20260901004938 75 183 1.0 3.0 0.00 0.00 0.00 61 1006.9
20260901004437 75 206 1.0 5.0 0.00 0.00 0.00 63 1006.9
20260901003937 75 211 2.0 7.0 0.00 0.00 0.00 57 1006.9
20260901003436 75 147 2.0 7.0 0.00 0.00 0.00 57 1007.0
20260901002933 75 355 2.0 6.0 0.00 0.00 0.00 57 1006.9
20260901002658 75 132 2.0 4.0 0.00 0.00 0.00 57 1007.0
20260901001935 76 155 2.0 6.0 0.00 0.00 0.00 57 1007.1
20260901001433 76 119 2.0 6.0 0.00 0.00 0.00 56 1007.2
20260901000933 76 165 2.0 5.0 0.00 0.00 0.00 57 1007.1
20260901000432 76 298 2.0 6.0 0.00 0.00 0.00 56 1007.2
20260831235931 76 46 2.0 6.0 0.00 0.00 0.00 56 1007.2
20260831235432 76 290 2.0 5.0 0.00 0.00 0.00 56 1007.2
20260831234933 76 152 1.0 5.0 0.00 0.00 0.00 57 1007.3
20260831234432 76 229 1.0 5.0 0.00 0.00 0.00 57 1007.3
20260831233931 76 137 1.0 7.0 0.00 0.00 0.00 55 1007.3
20260831233703 77 186 1.0 6.0 0.00 0.00 0.00 57 1007.4
20260831232931 77 41 2.0 5.0 0.00 0.00 0.00 55 1007.4
20260831232427 77 175 1.0 4.0 0.00 0.00 0.00 55 1007.4
20260831232150 77 309 1.0 7.0 0.00 0.00 0.00 54 1007.4
20260831231430 78 165 2.0 7.0 0.00 0.00 0.00 53 1007.4
20260831230927 78 197 3.0 7.0 0.00 0.00 0.00 53 1007.4
20260831230424 78 165 2.0 7.0 0.00 0.00 0.00 53 1007.5
20260831225926 78 166 2.0 7.0 0.00 0.00 0.00 52 1007.7
20260831225652 78 288 2.0 6.0 0.00 0.00 0.00 54 1007.7
20260831224923 78 232 2.0 7.0 0.00 0.00 0.00 54 1007.7
20260831224421 78 209 2.0 7.0 0.00 0.00 0.00 55 1007.8
20260831224141 78 194 2.0 7.0 0.00 0.00 0.00 56 1007.8
20260831223420 78 125 2.0 8.0 0.00 0.00 0.00 56 1007.8
20260831223137 77 230 3.0 9.0 0.00 0.00 0.00 55 1007.9
20260831222418 77 254 2.0 9.0 0.00 0.00 0.00 54 1007.9
20260831221916 77 128 1.0 9.0 0.00 0.00 0.00 55 1008.0
20260831221417 77 103 1.0 9.0 0.00 0.00 0.00 55 1008.0
20260831220921 77 18 1.0 3.0 0.00 0.00 0.00 56 1008.1
20260831220414 77 35 1.0 4.0 0.00 0.00 0.00 56 1008.1
20260831215914 77 333 1.0 4.0 0.00 0.00 0.00 56 1008.1
20260831215406 77 76 1.0 4.0 0.00 0.00 0.00 55 1008.2
20260831214901 77 134 1.0 4.0 0.00 0.00 0.00 54 1008.2
20260831214402 78 58 1.0 4.0 0.00 0.00 0.00 53 1008.3
20260831213856 78 307 1.0 4.0 0.00 0.00 0.00 55 1008.3
20260831213359 78 69 1.0 5.0 0.00 0.00 0.00 56 1008.3
20260831212856 78 207 1.0 5.0 0.00 0.00 0.00 57 1008.5
20260831212357 77 37 1.0 3.0 0.00 0.00 0.00 56 1008.5
20260831211858 78 125 1.0 4.0 0.00 0.00 0.00 57 1008.6
20260831211355 77 294 1.0 4.0 0.00 0.00 0.00 55 1008.6
20260831210854 77 160 1.0 3.0 0.00 0.00 0.00 55 1008.6
20260831210353 77 169 1.0 4.0 0.00 0.00 0.00 56 1008.7
20260831205855 76 90 1.0 4.0 0.00 0.00 0.00 59 1008.8
20260831205356 76 37 1.0 3.0 0.00 0.00 0.00 56 1008.8
20260831204852 76 180 1.0 3.0 0.00 0.00 0.00 56 1008.8
20260831204351 76 13 1.0 5.0 0.00 0.00 0.00 57 1008.9
20260831203851 76 153 1.0 5.0 0.00 0.00 0.00 58 1009.0
20260831203351 75 248 1.0 4.0 0.00 0.00 0.00 60 1009.1
20260831202852 75 99 1.0 4.0 0.00 0.00 0.00 57 1009.2
20260831202351 75 34 1.0 4.0 0.00 0.00 0.00 60 1009.2
20260831201851 75 326 1.0 4.0 0.00 0.00 0.00 59 1009.2
20260831201347 75 263 1.0 5.0 0.00 0.00 0.00 60 1009.3
20260831200839 75 355 0.0 4.0 0.00 0.00 0.00 58 1009.4
20260831200339 75 5 0.0 2.0 0.00 0.00 0.00 61 1009.5
20260831195837 75 331 0.0 3.0 0.00 0.00 0.00 62 1009.5
20260831195336 75 24 0.0 3.0 0.00 0.00 0.00 61 1009.7
20260831194837 74 334 0.0 2.0 0.00 0.00 0.00 60 1009.8
20260831194334 74 84 0.0 2.0 0.00 0.00 0.00 60 1009.8
20260831193834 74 290 1.0 3.0 0.00 0.00 0.00 63 1009.9
20260831193605 74 329 1.0 3.0 0.00 0.00 0.00 62 1010.1
20260831192836 74 202 0.0 4.0 0.00 0.00 0.00 65 1010.1
20260831192603 73 25 0.0 4.0 0.00 0.00 0.00 63 1010.2
20260831191834 72 9 0.0 2.0 0.00 0.00 0.00 64 1010.3
20260831191551 72 78 0.0 3.0 0.00 0.00 0.00 63 1010.5
20260831190833 71 98 0.0 3.0 0.00 0.00 0.00 64 1010.5
20260831190330 71 59 0.0 2.0 0.00 0.00 0.00 67 1010.6
20260831185831 71 5 1.0 2.0 0.00 0.00 0.00 67 1010.7
20260831185331 71 44 1.0 2.0 0.00 0.00 0.00 65 1010.8
20260831184828 70 136 0.0 2.0 0.00 0.00 0.00 65 1010.8
20260831184328 70 298 0.0 3.0 0.00 0.00 0.00 68 1010.9
20260831183839 69 59 1.0 3.0 0.00 0.00 0.00 68 1011.0
20260831183330 69 28 0.0 2.0 0.00 0.00 0.00 69 1011.0
20260831182824 68 43 1.0 4.0 0.00 0.00 0.00 70 1011.0
20260831182319 68 141 1.0 4.0 0.00 0.00 0.00 70 1011.1
20260831181815 67 336 1.0 3.0 0.00 0.00 0.00 74 1011.1
20260831181307 66 338 0.0 3.0 0.00 0.00 0.00 75 1011.2
20260831180801 65 83 0.0 2.0 0.00 0.00 0.00 74 1011.2
20260831180255 64 298 0.0 2.0 0.00 0.00 0.00 80 1011.2
20260831175751 63 333 0.0 3.0 0.00 0.00 0.00 80 1011.3
20260831175243 62 31 1.0 3.0 0.00 0.00 0.00 81 1011.4
20260831174736 62 136 0.0 3.0 0.00 0.00 0.00 81 1011.5
20260831174231 61 111 1.0 3.0 0.00 0.00 0.00 84 1011.5
20260831173723 60 234 1.0 3.0 0.00 0.00 0.00 86 1011.6
20260831173444 60 81 0.0 2.0 0.00 0.00 0.00 88 1011.6
20260831172715 59 69 0.0 3.0 0.00 0.00 0.00 94 1011.7
20260831172429 58 34 0.0 3.0 0.00 0.00 0.00 97 1011.7
20260831171703 57 53 0.0 1.0 0.00 0.00 0.00 98 1011.9
20260831171154 56 55 0.0 1.0 0.00 0.00 0.00 98 1011.9
20260831170649 56 343 0.0 1.0 0.00 0.00 0.00 98 1011.9
20260831170143 55 205 0.0 1.0 0.00 0.00 0.00 98 1012.0
20260831165641 55 236 0.0 1.0 0.00 0.00 0.00 98 1012.1
20260831165132 54 236 0.0 1.0 0.00 0.00 0.00 97 1012.1
20260831164631 54 232 0.0 1.0 0.00 0.00 0.00 98 1012.0
20260831164128 53 232 0.0 0.0 0.00 0.00 0.00 98 1012.1
20260831163626 53 232 0.0 0.0 0.00 0.00 0.00 97 1012.2
20260831163125 52 232 0.0 1.0 0.00 0.00 0.00 97 1012.3
20260831162625 52 232 0.0 0.0 0.00 0.00 0.00 97 1012.3
20260831162125 52 232 0.0 0.0 0.00 0.00 0.00 97 1012.4
20260831161902 51 232 0.0 1.0 0.00 0.00 0.00 97 1012.5
20260831161124 51 232 0.0 1.0 0.00 0.00 0.00 97 1012.6
20260831160623 51 232 0.0 0.0 0.00 0.00 0.00 97 1012.6
20260831160353 50 232 0.0 1.0 0.00 0.00 0.00 97 1012.7
20260831155844 50 232 0.0 1.0 0.00 0.00 0.00 97 1012.7
20260831155115 50 232 0.0 1.0 0.00 0.00 0.00 97 1012.7
20260831154623 50 229 0.0 0.0 0.00 0.00 0.00 97 1012.7
20260831154121 49 229 0.0 0.0 0.00 0.00 0.00 97 1012.7
20260831153615 49 229 0.0 0.0 0.00 0.00 0.00 97 1012.7
20260831153114 49 229 0.0 0.0 0.00 0.00 0.00 97 1012.7
20260831152841 49 229 0.0 0.0 0.00 0.00 0.00 97 1012.8
20260831152116 49 229 0.0 0.0 0.00 0.00 0.00 97 1012.8
20260831151608 49 229 0.0 0.0 0.00 0.00 0.00 97 1012.8
20260831151103 49 229 0.0 0.0 0.00 0.00 0.00 97 1012.8
20260831150557 48 229 0.0 0.0 0.00 0.00 0.00 97 1012.9
20260831150052 48 229 0.0 0.0 0.00 0.00 0.00 97 1013.0
20260831145545 48 222 0.0 1.0 0.00 0.00 0.00 97 1012.9
20260831145306 48 222 0.0 1.0 0.00 0.00 0.00 96 1012.9
20260831144533 48 222 0.0 0.0 0.00 0.00 0.00 96 1012.9
20260831144256 47 222 0.0 0.0 0.00 0.00 0.00 97 1012.9
20260831143531 47 222 0.0 0.0 0.00 0.00 0.00 96 1013.0
20260831143032 47 222 0.0 0.0 0.00 0.00 0.00 96 1013.0
20260831142527 47 222 0.0 0.0 0.00 0.00 0.00 96 1013.0
20260831142029 47 222 0.0 0.0 0.00 0.00 0.00 96 1012.9
20260831141529 47 222 0.0 0.0 0.00 0.00 0.00 96 1013.0
20260831141027 47 222 0.0 0.0 0.00 0.00 0.00 96 1013.0
20260831140748 47 223 0.0 0.0 0.00 0.00 0.00 96 1013.0
20260831140027 47 222 0.0 1.0 0.00 0.00 0.00 96 1013.0
20260831135531 47 222 0.0 1.0 0.00 0.00 0.00 96 1012.9
20260831135028 47 222 0.0 1.0 0.00 0.00 0.00 96 1012.9
20260831134529 47 215 0.0 0.0 0.00 0.00 0.00 96 1012.9
20260831134027 47 215 0.0 0.0 0.00 0.00 0.00 96 1012.9
20260831133531 47 215 0.0 0.0 0.00 0.00 0.00 96 1012.9
20260831133029 47 215 0.0 1.0 0.00 0.00 0.00 96 1013.0
20260831132529 47 215 0.0 2.0 0.00 0.00 0.00 96 1013.0
20260831132026 47 215 0.0 2.0 0.00 0.00 0.00 96 1013.1
20260831131526 47 215 0.0 1.0 0.00 0.00 0.00 96 1013.0
20260831131027 47 215 0.0 1.0 0.00 0.00 0.00 96 1013.1
20260831130520 47 215 0.0 0.0 0.00 0.00 0.00 96 1013.0
20260831130015 47 215 0.0 0.0 0.00 0.00 0.00 96 1013.1
20260831130002 48 215 0.0 0.0 0.00 0.00 0.00 96 1013.1
20260831125002 48 215 0.0 0.0 0.00 0.00 0.00 96 1013.2
20260831124457 47 215 0.0 0.0 0.00 0.00 0.00 96 1013.2
20260831123951 47 215 0.0 0.0 0.00 0.00 0.00 96 1013.2
20260831123445 47 215 0.0 3.0 0.00 0.00 0.00 96 1013.3
20260831122939 47 215 1.0 3.0 0.00 0.00 0.00 96 1013.3
20260831122432 48 211 1.0 3.0 0.00 0.00 0.00 96 1013.3
20260831121926 48 209 1.0 3.0 0.00 0.00 0.00 96 1013.3
20260831121420 48 204 1.0 2.0 0.00 0.00 0.00 96 1013.4
20260831120916 48 204 1.0 2.0 0.00 0.00 0.00 96 1013.5
20260831120408 48 203 1.0 2.0 0.00 0.00 0.00 96 1013.6
20260831115902 48 213 0.0 2.0 0.00 0.00 0.00 96 1013.5
20260831115356 48 213 0.0 2.0 0.00 0.00 0.00 96 1013.5
20260831115128 48 213 1.0 2.0 0.00 0.00 0.00 96 1013.6
20260831114346 48 213 1.0 2.0 0.00 0.00 0.00 96 1013.6
20260831113838 48 213 0.0 2.0 0.00 0.00 0.00 96 1013.7
20260831113332 48 213 0.0 2.0 0.00 0.00 0.00 96 1013.6
20260831112827 48 213 0.0 2.0 0.00 0.00 0.00 96 1013.7
20260831112320 48 213 0.0 0.0 0.00 0.00 0.00 96 1013.7
20260831112050 48 213 0.0 0.0 0.00 0.00 0.00 96 1013.8
20260831111537 48 213 0.0 0.0 0.00 0.00 0.00 96 1014.0
20260831111034 48 213 0.0 1.0 0.00 0.00 0.00 96 1014.1
20260831110256 49 213 0.0 1.0 0.00 0.00 0.00 96 1014.1
20260831105750 49 213 0.0 0.0 0.00 0.00 0.00 96 1014.0
20260831105244 49 213 0.0 1.0 0.00 0.00 0.00 96 1014.1
20260831104739 49 213 0.0 3.0 0.00 0.00 0.00 96 1014.1
20260831104232 49 213 1.0 3.0 0.00 0.00 0.00 96 1014.1
20260831103726 49 221 1.0 2.0 0.00 0.00 0.00 96 1014.3
20260831103450 49 232 0.0 2.0 0.00 0.00 0.00 96 1014.3
20260831102715 49 232 1.0 3.0 0.00 0.00 0.00 96 1014.3
20260831102208 49 232 1.0 3.0 0.00 0.00 0.00 96 1014.4
20260831101702 49 213 0.0 2.0 0.00 0.00 0.00 95 1014.4
20260831101156 49 213 1.0 3.0 0.00 0.00 0.00 96 1014.5
20260831100651 49 213 0.0 3.0 0.00 0.00 0.00 95 1014.4
20260831100404 49 213 0.0 0.0 0.00 0.00 0.00 95 1014.4
20260831095638 49 213 0.0 1.0 0.00 0.00 0.00 95 1014.5
20260831095132 49 213 0.0 2.0 0.00 0.00 0.00 95 1014.6
20260831094627 49 213 0.0 1.0 0.00 0.00 0.00 95 1014.7
20260831094120 49 213 0.0 0.0 0.00 0.00 0.00 95 1014.7
20260831093616 49 213 0.0 0.0 0.00 0.00 0.00 95 1014.8
20260831093116 49 213 0.0 0.0 0.00 0.00 0.00 95 1014.9
20260831092617 49 213 0.0 1.0 0.00 0.00 0.00 95 1015.0
20260831092122 49 213 0.0 1.0 0.00 0.00 0.00 95 1015.0
20260831091619 49 213 0.0 1.0 0.00 0.00 0.00 95 1015.1
20260831091338 49 213 0.0 2.0 0.00 0.00 0.00 95 1015.2
20260831090612 49 213 0.0 2.0 0.00 0.00 0.00 95 1015.2
20260831090333 50 214 0.0 2.0 0.00 0.00 0.00 95 1015.2
20260831085839 50 214 0.0 2.0 0.00 0.00 0.00 95 1015.3
20260831085105 50 214 0.0 1.0 0.00 0.00 0.00 95 1015.3
20260831084845 50 214 0.0 2.0 0.00 0.00 0.00 95 1015.3
20260831084102 50 214 0.0 2.0 0.00 0.00 0.00 95 1015.2
20260831083601 50 208 1.0 3.0 0.00 0.00 0.00 95 1015.3
20260831083100 50 208 1.0 3.0 0.00 0.00 0.00 95 1015.2
20260831082559 50 217 0.0 2.0 0.00 0.00 0.00 95 1015.3
20260831082058 50 211 0.0 2.0 0.00 0.00 0.00 95 1015.3
20260831081828 50 211 0.0 2.0 0.00 0.00 0.00 95 1015.3
20260831081104 50 213 0.0 2.0 0.00 0.00 0.00 95 1015.3
20260831080606 50 213 0.0 2.0 0.00 0.00 0.00 95 1015.3
20260831080335 50 215 0.0 3.0 0.00 0.00 0.00 95 1015.5
20260831080057 50 213 1.0 2.0 0.00 0.00 0.00 95 1015.4
20260831075053 50 211 0.0 3.0 0.00 0.00 0.00 95 1015.5
20260831074549 50 211 1.0 2.0 0.00 0.00 0.00 95 1015.6
20260831074311 51 212 1.0 2.0 0.00 0.00 0.00 95 1015.6
20260831073550 51 212 1.0 2.0 0.00 0.00 0.00 95 1015.7
20260831073044 51 216 1.0 2.0 0.00 0.00 0.00 95 1015.7
20260831072540 51 217 1.0 2.0 0.00 0.00 0.00 94 1015.7
20260831072037 51 217 0.0 2.0 0.00 0.00 0.00 95 1015.8
20260831071537 51 217 0.0 0.0 0.00 0.00 0.00 95 1015.9
20260831071036 51 217 0.0 2.0 0.00 0.00 0.00 95 1016.0
20260831070534 51 217 1.0 3.0 0.00 0.00 0.00 95 1016.0
20260831070035 51 217 1.0 3.0 0.00 0.00 0.00 94 1016.1
20260831065534 51 211 1.0 3.0 0.00 0.00 0.00 94 1016.1
20260831065032 51 223 1.0 2.0 0.00 0.00 0.00 94 1016.1
20260831064530 51 223 0.0 2.0 0.00 0.00 0.00 94 1016.1
20260831064028 51 223 0.0 2.0 0.00 0.00 0.00 94 1016.1
20260831063759 51 223 0.0 2.0 0.00 0.00 0.00 94 1016.2
20260831063030 51 223 0.0 2.0 0.00 0.00 0.00 94 1016.3
20260831062523 52 223 0.0 1.0 0.00 0.00 0.00 93 1016.3
20260831062017 52 223 0.0 2.0 0.00 0.00 0.00 93 1016.3
20260831061511 52 223 0.0 2.0 0.00 0.00 0.00 93 1016.4
20260831061005 52 223 0.0 1.0 0.00 0.00 0.00 93 1016.5
20260831060501 52 223 0.0 1.0 0.00 0.00 0.00 93 1016.6
20260831055953 52 223 0.0 0.0 0.00 0.00 0.00 92 1016.6
20260831055447 52 223 0.0 0.0 0.00 0.00 0.00 92 1016.6
20260831054940 53 223 0.0 0.0 0.00 0.00 0.00 92 1016.7
20260831054439 53 223 0.0 0.0 0.00 0.00 0.00 92 1016.7
20260831053936 53 223 0.0 0.0 0.00 0.00 0.00 92 1016.7
20260831053435 53 223 0.0 0.0 0.00 0.00 0.00 92 1016.8
20260831053430 53 223 0.0 0.0 0.00 0.00 0.00 92 1016.7
20260831052434 53 223 0.0 2.0 0.00 0.00 0.00 92 1016.8
20260831051935 53 223 0.0 2.0 0.00 0.00 0.00 91 1016.8
20260831051653 54 223 0.0 0.0 0.00 0.00 0.00 91 1016.8
20260831050934 54 223 0.0 0.0 0.00 0.00 0.00 91 1016.7
20260831050432 54 223 0.0 1.0 0.00 0.00 0.00 91 1016.8
20260831045931 54 223 0.0 1.0 0.00 0.00 0.00 91 1016.8
20260831045435 54 223 0.0 1.0 0.00 0.00 0.00 91 1016.8
20260831044930 55 223 0.0 0.0 0.00 0.00 0.00 91 1016.8
20260831044429 55 223 0.0 0.0 0.00 0.00 0.00 90 1016.8
20260831043928 55 223 0.0 0.0 0.00 0.00 0.00 90 1016.8
20260831043649 55 223 0.0 0.0 0.00 0.00 0.00 89 1016.8
20260831042924 55 223 0.0 0.0 0.00 0.00 0.00 90 1016.9
20260831042420 56 223 0.0 0.0 0.00 0.00 0.00 89 1016.8
20260831041921 56 223 0.0 1.0 0.00 0.00 0.00 89 1016.8
20260831041647 56 223 0.0 1.0 0.00 0.00 0.00 89 1016.8
20260831040911 56 223 0.0 0.0 0.00 0.01 0.00 89 1016.9
20260831040631 56 223 0.0 1.0 0.00 0.01 0.00 88 1016.8
20260831035859 57 223 0.0 1.0 0.00 0.01 0.00 88 1016.8
20260831035353 57 223 0.0 1.0 0.00 0.01 0.00 88 1016.7
20260831034847 57 223 0.0 0.0 0.00 0.01 0.00 88 1016.7
20260831034342 57 223 0.0 0.0 0.00 0.01 0.00 87 1016.6
20260831034056 58 223 0.0 0.0 0.00 0.01 0.00 86 1016.6
20260831033335 58 223 0.0 1.0 0.00 0.01 0.00 86 1016.6
20260831032832 58 223 0.0 1.0 0.00 0.01 0.00 85 1016.5
20260831032331 58 223 0.0 1.0 0.00 0.01 0.00 85 1016.5
20260831031837 59 223 0.0 2.0 0.00 0.01 0.00 85 1016.4
20260831031334 59 223 0.0 2.0 0.00 0.01 0.00 83 1016.4
20260831030829 60 223 0.0 2.0 0.00 0.01 0.00 83 1016.4
20260831030328 60 223 1.0 3.0 0.00 0.01 0.00 83 1016.4
20260831030051 60 225 1.0 3.0 0.00 0.01 0.00 82 1016.4
20260831025326 61 178 0.0 2.0 0.00 0.01 0.00 82 1016.4
20260831024825 61 178 0.0 2.0 0.00 0.02 0.00 81 1016.4
20260831024328 62 178 0.0 2.0 0.00 0.02 0.00 81 1016.5
20260831023826 62 178 0.0 1.0 0.00 0.02 0.00 81 1016.5
20260831023322 63 178 0.0 1.0 0.00 0.02 0.00 81 1016.5
20260831022822 63 178 0.0 1.0 0.00 0.02 0.00 82 1016.5
20260831022323 63 178 0.0 2.0 0.00 0.02 0.00 82 1016.5
20260831021822 64 178 0.0 2.0 0.00 0.02 0.00 82 1016.5
20260831021331 64 178 0.0 1.0 0.00 0.02 0.00 82 1016.5
20260831020827 64 178 0.0 1.0 0.00 0.02 0.00 83 1016.5
20260831020325 64 178 0.0 1.0 0.00 0.02 0.00 82 1016.6
20260831015828 65 178 0.0 1.0 0.00 0.02 0.00 80 1016.5
20260831015325 65 178 0.0 0.0 0.00 0.02 0.00 80 1016.6
20260831014819 65 178 0.0 1.0 0.00 0.02 0.00 81 1016.7
20260831014323 65 178 0.0 1.0 0.00 0.02 0.00 80 1016.7
20260831013822 65 178 0.0 1.0 0.00 0.02 0.00 81 1016.7
20260831013553 65 178 0.0 0.0 0.00 0.02 0.00 80 1016.7
20260831013545 65 178 0.0 0.0 0.00 0.02 0.00 78 1016.8
20260831013541 65 178 0.0 0.0 0.00 0.02 0.00 79 1016.7
20260831012049 66 178 0.0 0.0 0.00 0.02 0.00 78 1016.9
20260831011317 66 178 0.0 0.0 0.00 0.02 0.00 80 1016.9
20260831010818 66 178 0.0 0.0 0.00 0.02 0.00 80 1016.9
20260831010315 66 178 0.0 1.0 0.00 0.02 0.00 79 1016.9
20260831005811 66 178 0.0 1.0 0.00 0.02 0.00 78 1016.9
20260831005312 66 178 0.0 1.0 0.00 0.02 0.00 76 1017.0